[[{"header":{"parameterUnit":"m.s-1","parameterCategory":1,"la1":30.2991,"la2":30.254,"lo1":-89.0895,"lo2":-89.0444,"dy":0.0017,"dx":0.0017,"nx":28,"ny":28,"refTime":"2025-05-23T21:00:00:Z","depth":0,"parameterNumber":2,"parameterNumberName":"U-component_of_WINDS"},"data":[0,0,0,0,0,0,0,0,0,0,0,0,0,0,0,0,0,0,0,0,0,0,0,0,0,0,0,0,0,0,0,0,0,0,0,0,0,0,0,0,0,0,0,0,0,0,0,0,0,0,0,0,0,0,0,0,0,0,1.1566,1.1567,0,1.1592,1.1593,1.1593,1.1572,1.1571,1.157,1.1569,1.1597,1.1598,1.16,0,0,0,0,0,0,0,0,0,0,0,0,0,1.1499,1.1501,1.1566,1.1567,1.1567,1.1592,1.1593,1.1593,1.1572,1.1571,1.157,1.1569,1.1596,1.1598,1.16,0,0,0,0,0,0,0,0,0,0,0,0,0,1.1527,1.1501,1.1566,1.156,1.1559,1.1592,1.1593,1.1593,1.1572,1.1571,1.1569,1.1568,1.1596,1.1598,1.16,1.1642,0,0,1.1608,1.1609,0,0,0,0,0,0,0,0,1.1526,1.153,1.156,1.156,1.156,1.1577,1.1579,1.161,1.1573,1.1567,1.1569,1.1568,1.1592,1.1594,1.1602,1.1643,1.1644,1.1608,1.1609,1.161,1.1611,0,0,0,0,0,0,0,1.1524,1.1528,1.1577,1.1561,1.156,1.1555,1.1558,1.1585,1.1587,1.1568,1.1566,1.1569,1.1591,1.16,1.1603,1.1645,1.1608,1.161,1.1611,1.1612,1.172,1.1722,0,0,0,0,0,0,1.1522,1.1527,1.1576,1.1577,1.1539,1.1558,1.156,1.1573,1.1586,1.1587,1.1571,1.1568,1.1596,1.16,1.1603,1.1652,1.161,1.1612,1.1614,1.1719,1.1721,1.1722,0,0,0,0,0,0,1.1521,1.1527,1.1575,1.1552,1.1557,1.156,1.1575,1.1574,1.1583,1.1589,1.1589,1.1579,1.1596,1.16,1.1632,1.1653,1.1614,1.1616,1.1717,1.1719,1.1721,1.175,0,0,0,0,0,0,1.1519,1.1526,1.1542,1.1552,1.1559,1.1603,1.1576,1.1576,1.1587,1.1584,1.1597,1.1597,1.1595,1.1629,1.1635,1.1655,1.1618,1.1715,1.1718,1.1721,1.1747,1.1753,1.1758,0,0,0,0,0,1.1517,1.155,1.1543,1.1549,1.1578,1.1604,1.1608,1.1604,1.1589,1.1604,1.1608,1.1597,1.165,1.1632,1.1639,1.166,1.1714,1.1717,1.1721,1.1745,1.1752,1.1758,0,0,0,0,0,0,1.1542,1.1551,1.1544,1.1581,1.1592,1.1601,1.162,1.1612,1.1628,1.1625,1.162,1.1623,1.1656,1.1662,1.1642,1.1701,1.1679,1.1684,1.1696,1.1702,1.1708,1.1705,1.1619,0,0,0,0,0,1.1552,1.1572,1.1579,1.1611,1.1617,1.1618,1.1629,1.1625,1.1636,1.1641,1.1647,1.1659,1.1678,1.1691,1.1709,1.1748,1.175,1.1766,1.1772,1.1776,1.178,1.18,1.1807,1.1733,1.1733,1.1733,0,0,1.1573,1.158,1.1593,1.1616,1.1624,1.1645,1.1622,1.1645,1.166,1.1645,1.1675,1.168,1.1692,1.1728,1.1744,1.1734,1.1801,1.178,1.1783,1.1785,1.1804,1.1811,1.1818,1.1735,1.1735,1.1734,0,0,1.162,1.1628,1.1655,1.1664,1.1676,1.1677,1.1683,1.1693,1.1696,1.1726,1.1714,1.1733,1.1766,1.1776,1.1785,1.1836,1.1826,1.1842,1.187,1.189,1.1895,1.1901,1.1918,1.1925,1.1846,1.1846,1.1847,0,1.1644,1.1675,1.167,1.1694,1.1704,1.1691,1.1718,1.1727,1.1745,1.1752,1.174,1.1781,1.1789,1.1827,1.1839,1.1847,1.1854,1.184,1.1895,1.19,1.1905,1.1921,1.1928,1.1848,1.1848,1.1848,1.1848,0,1.1704,1.1725,1.1746,1.1762,1.1775,1.1801,1.18,1.1813,1.1809,1.181,1.1841,1.185,1.1869,1.1878,1.1874,1.1915,1.1908,1.1896,1.1874,1.1914,1.1929,1.1936,1.1851,1.185,1.185,1.1849,0,0,1.1768,1.1782,1.1789,1.1796,1.1809,1.1826,1.1851,1.1869,1.188,1.1893,1.1914,1.1942,1.1931,1.1941,1.1938,1.1956,1.1995,1.1941,1.1941,1.195,1.204,1.2048,1.2055,1.1989,1.199,1.1991,1.2038,0,1.1815,1.1858,1.1854,1.1895,1.1914,1.1902,1.1923,1.1934,1.1936,1.1953,1.1956,1.1976,1.196,1.1966,1.1983,1.1986,1.2013,1.1983,1.2007,1.2008,1.2003,1.2064,1.2073,1.2117,1.2044,1.2045,1.2046,0,1.1876,1.1891,1.1933,1.1942,1.195,1.197,1.1986,1.2003,1.2014,1.2014,1.2026,1.2019,1.2045,1.2023,1.2057,1.2037,1.2047,1.205,1.2052,1.2053,1.2029,1.2066,1.2131,1.2137,1.2056,1.2055,1.2054,0,1.1918,1.1948,1.1977,1.1983,1.1995,1.2009,1.2015,1.2025,1.2036,1.205,1.2057,1.2075,1.2084,1.2098,1.2097,1.2081,1.2131,1.211,1.2132,1.2132,1.2142,1.2142,1.2209,1.215,1.215,1.215,1.215,0,1.1971,1.1997,1.1995,1.2013,1.2042,1.2038,1.2066,1.207,1.2079,1.2098,1.2089,1.2106,1.2103,1.2121,1.212,1.2148,1.2153,1.2154,1.2153,1.2154,1.2154,1.216,1.2156,1.2152,1.2152,1.2151,1.2151,0,1.2021,1.2021,1.2052,1.206,1.2063,1.2084,1.2091,1.2108,1.211,1.2133,1.2138,1.2141,1.2161,1.2161,1.2184,1.2184,1.2218,1.2214,1.2214,1.2213,1.2235,1.2232,1.2307,1.2317,1.2253,1.2254,1.2254,0,1.2054,1.2074,1.2085,1.2096,1.2102,1.2121,1.2132,1.2129,1.2141,1.2155,1.217,1.2189,1.2204,1.2237,1.2241,1.2259,1.2255,1.228,1.2258,1.2258,1.2254,1.2253,1.2254,1.2284,1.2285,1.2286,1.2286,0,1.2113,1.2112,1.2128,1.2144,1.2158,1.2171,1.2182,1.2192,1.2191,1.2205,1.2225,1.2236,1.226,1.2279,1.2296,1.2302,1.2294,1.2293,1.2299,1.23,1.2298,1.2298,1.2225,1.2291,1.2291,1.229,1.229,1.229,1.2155,1.2172,1.2182,1.22,1.2208,1.2219,1.2235,1.2239,1.2255,1.2274,1.2271,1.2294,1.2304,1.2326,1.2334,1.2351,1.2342,1.2351,1.2353,1.2355,1.2357,1.2296,1.2354,1.2354,1.2354,1.2354,1.2354,0,1.2212,1.2218,1.2235,1.2251,1.2266,1.2257,1.2269,1.2282,1.2301,1.2312,1.2327,1.235,1.2368,1.2374,1.2392,1.2404,1.2401,1.2409,1.2408,1.2409,1.2364,1.2357,1.2411,1.2411,1.2411,1.2411,1.2411,1.2411,1.2244,1.2271,1.2271,1.2303,1.2308,1.233,1.2338,1.2348,1.2356,1.2382,1.2397,1.24,1.2409,1.2427,1.2443,1.2445,1.2451,1.2461,1.246,1.2418,1.2412,1.2407,1.24,1.2462,1.2462,1.2503,1.2504,1.2504]},{"header":{"parameterUnit":"m.s-1","parameterCategory":1,"la1":30.2991,"la2":30.254,"lo1":-89.0895,"lo2":-89.0444,"dy":0.0017,"dx":0.0017,"nx":28,"ny":28,"refTime":"2025-05-23T21:00:00:Z","depth":0,"parameterNumber":3,"parameterNumberName":"V-component_of_WINDS"},"data":[0,0,0,0,0,0,0,0,0,0,0,0,0,0,0,0,0,0,0,0,0,0,0,0,0,0,0,0,0,0,0,0,0,0,0,0,0,0,0,0,0,0,0,0,0,0,0,0,0,0,0,0,0,0,0,0,0,0,1.7139,1.7139,0,1.7199,1.72,1.7201,1.7204,1.7203,1.7202,1.7202,1.7261,1.7263,1.7266,0,0,0,0,0,0,0,0,0,0,0,0,0,1.7024,1.7026,1.7139,1.714,1.714,1.7199,1.72,1.7201,1.7204,1.7203,1.7202,1.7201,1.726,1.7263,1.7266,0,0,0,0,0,0,0,0,0,0,0,0,0,1.7078,1.7027,1.7139,1.7149,1.7151,1.7199,1.72,1.7201,1.7204,1.7203,1.7202,1.7201,1.726,1.7263,1.7266,1.7307,0,0,1.7276,1.7278,0,0,0,0,0,0,0,0,1.7075,1.7082,1.7147,1.7148,1.715,1.7193,1.7181,1.7237,1.7204,1.7184,1.7202,1.7201,1.7239,1.7244,1.7258,1.731,1.7313,1.7277,1.7279,1.728,1.7281,0,0,0,0,0,0,0,1.7071,1.708,1.7163,1.7148,1.715,1.715,1.7156,1.7192,1.7216,1.7185,1.7186,1.7193,1.724,1.7254,1.7259,1.7314,1.7276,1.7279,1.7282,1.7283,1.7403,1.7404,0,0,0,0,0,0,1.7066,1.7076,1.7161,1.7164,1.7109,1.7153,1.716,1.718,1.7216,1.7221,1.7194,1.7193,1.7249,1.7255,1.7261,1.7312,1.728,1.7283,1.7285,1.7402,1.7404,1.7405,0,0,0,0,0,0,1.7063,1.7073,1.7158,1.7121,1.7131,1.7156,1.7178,1.7182,1.7197,1.7223,1.7227,1.7204,1.7249,1.7256,1.7296,1.7314,1.7285,1.7288,1.7401,1.7403,1.7404,1.7414,0,0,0,0,0,0,1.706,1.7072,1.7089,1.7121,1.7133,1.7193,1.718,1.7184,1.7203,1.7202,1.7233,1.7238,1.7248,1.7291,1.7299,1.7318,1.729,1.7399,1.7401,1.7404,1.7412,1.7416,1.7419,0,0,0,0,0,1.7056,1.7089,1.709,1.71,1.7155,1.7194,1.7201,1.7214,1.7204,1.7221,1.7237,1.7237,1.7311,1.7295,1.7305,1.7325,1.7398,1.7401,1.7403,1.7411,1.7415,1.7419,0,0,0,0,0,0,1.7057,1.7093,1.7095,1.7139,1.7163,1.7194,1.7216,1.7218,1.7245,1.7243,1.7257,1.7264,1.7303,1.7318,1.73,1.7367,1.7353,1.7358,1.7356,1.736,1.7364,1.7359,1.7293,0,0,0,0,0,1.7063,1.7092,1.7122,1.7158,1.717,1.7191,1.7208,1.7216,1.7242,1.7252,1.7271,1.7296,1.7325,1.7343,1.7371,1.7414,1.7421,1.7433,1.7436,1.7439,1.7443,1.7467,1.7473,1.7414,1.7414,1.7414,0,0,1.7074,1.7097,1.7115,1.7159,1.7179,1.7209,1.72,1.7231,1.7253,1.7256,1.7295,1.7311,1.7338,1.738,1.74,1.7394,1.7461,1.7443,1.7445,1.7447,1.747,1.7476,1.7481,1.7416,1.7415,1.7415,0,0,1.711,1.7131,1.7164,1.7184,1.7215,1.7228,1.7236,1.7267,1.7277,1.7317,1.732,1.7346,1.7395,1.7415,1.7432,1.7476,1.7476,1.7484,1.7503,1.7526,1.7531,1.7535,1.755,1.7556,1.7488,1.7488,1.7488,0,1.7121,1.7166,1.718,1.7212,1.7231,1.7236,1.7269,1.7288,1.7325,1.7338,1.7331,1.7394,1.7413,1.7459,1.747,1.7483,1.7492,1.7481,1.7529,1.7533,1.7537,1.7552,1.7558,1.7489,1.7489,1.7489,1.7489,0,1.7177,1.7209,1.7231,1.7269,1.7291,1.7323,1.7341,1.7361,1.7366,1.738,1.742,1.7444,1.7476,1.7488,1.7493,1.7535,1.7531,1.7526,1.7513,1.7544,1.7558,1.7564,1.749,1.749,1.749,1.7489,0,0,1.7216,1.7261,1.7269,1.7286,1.732,1.7345,1.7377,1.741,1.7427,1.7453,1.748,1.7522,1.7518,1.7537,1.7544,1.7565,1.7598,1.7558,1.7559,1.7565,1.7646,1.7649,1.7656,1.7599,1.76,1.7601,1.7644,0,1.7256,1.7314,1.7328,1.7378,1.7407,1.7412,1.744,1.7464,1.7478,1.7504,1.7519,1.7549,1.7542,1.7553,1.7574,1.759,1.7615,1.7587,1.7624,1.7625,1.7617,1.7663,1.7667,1.7706,1.7649,1.765,1.7651,0,1.731,1.7339,1.7392,1.7423,1.7435,1.7461,1.7492,1.7517,1.7544,1.7553,1.7574,1.758,1.7613,1.7598,1.7644,1.7625,1.7641,1.7651,1.7653,1.7657,1.764,1.7669,1.7719,1.7725,1.766,1.7659,1.7659,0,1.7333,1.7384,1.7423,1.7437,1.7474,1.7492,1.7508,1.7534,1.7553,1.758,1.7593,1.7623,1.7639,1.7662,1.7676,1.7664,1.772,1.7707,1.7728,1.7728,1.774,1.7739,1.7793,1.775,1.775,1.775,1.775,0,1.7376,1.7409,1.7434,1.7457,1.7494,1.7508,1.7544,1.756,1.7583,1.7609,1.7615,1.764,1.7656,1.7683,1.7693,1.7729,1.7737,1.7744,1.7747,1.7744,1.7743,1.7754,1.7752,1.7751,1.7751,1.7751,1.775,0,1.7408,1.7426,1.7468,1.75,1.7509,1.7534,1.7561,1.7584,1.7598,1.7632,1.764,1.7662,1.7694,1.771,1.7749,1.7756,1.7797,1.7798,1.7788,1.7789,1.781,1.7808,1.7873,1.7883,1.7833,1.7833,1.7834,0,1.7434,1.746,1.7494,1.7513,1.753,1.7559,1.7579,1.7595,1.7615,1.7647,1.7666,1.7699,1.7725,1.7775,1.7794,1.7824,1.7826,1.7847,1.783,1.7827,1.7826,1.7825,1.7827,1.785,1.785,1.7851,1.7851,0,1.7479,1.7487,1.7516,1.7548,1.7572,1.7598,1.7623,1.7638,1.7657,1.7679,1.7712,1.7733,1.7773,1.7805,1.7837,1.7852,1.7855,1.7856,1.7863,1.786,1.7853,1.7857,1.7796,1.7854,1.7854,1.7854,1.7854,1.7853,1.7509,1.7532,1.756,1.7592,1.7613,1.7637,1.766,1.7678,1.7706,1.774,1.7748,1.7782,1.7809,1.7851,1.7868,1.7895,1.789,1.79,1.7902,1.7904,1.7905,1.7849,1.7901,1.7901,1.7901,1.79,1.79,0,1.7555,1.7573,1.7603,1.7638,1.7663,1.7665,1.7693,1.7713,1.7744,1.7769,1.7795,1.7833,1.7864,1.7886,1.7917,1.7935,1.7937,1.7942,1.7941,1.7945,1.7908,1.7899,1.794,1.794,1.794,1.794,1.794,1.794,1.7581,1.762,1.7631,1.768,1.7698,1.7733,1.7749,1.7771,1.7791,1.7833,1.7859,1.7874,1.7897,1.793,1.7959,1.7964,1.7975,1.7981,1.7986,1.7951,1.7947,1.7943,1.7935,1.7983,1.7983,1.8021,1.8022,1.8022]}]]